TITAN 3C TRANSTAGE DEB, 43449

Orbit data source: Space-Track

TITAN 3C TRANSTAGE DEB, 43449 is space debris in GEO originally from a launch on Sun, 09 Feb 1969 UTC launched from the Air Force Eastern Test Range (AFETR). Debris objects in space refer to the collection of defunct objects orbiting the Earth. Examples of debris include non-operational satellites, rocket bodies, and fragments generated from explosions, collisions, or faulty payload assembly.

Not visible in the next 10 days
Identifier
43449, 1969-013J
Orbit
GEO
Country
Flag of USUS
Related business
Manufacturer
Martin Marietta
Mission
Spacecraft
Bus & Motor
Unknown
Mass
Unknown
Launch date (UTC)
1969-02-09 (57 years ago)
Launch vehicle
Unknown
Launch site
Air Force Eastern Test Range (AFETR)
Object type
Payload
Rocket body
Debris
Shape & HBR
Unknown shape, 1.1 m
Radar Cross Section
RCS unknown

Expand to show TLE details & history
Last TLE update: 2 days ago

TLE from 2 days ago
0 TITAN 3C TRANSTAGE DEB
1 43449U 69013J   25352.31722387 -.00000197  00000-0  00000-0 0  9991
2 43449   0.9644  68.9648 0127002  76.9533 214.9171  0.96591690 27093
Epoch: 2025-12-18T07:36Z
TLE epoch observation values (Epoch: 2025-12-18T07:36:48.142Z)
Latitude
-0.89459°
Longitude
158.62783°
Altitude
37,300.162 km
Speed
3.005 km/s
True Right ascension
00h 00m 00s
True Declination
0° 53' 37"
Sunlit
Object was in daylight at epoch
Visualization orbit readout
Latitude
Unknown
Longitude
Unknown
Altitude
Unknown
Speed
Unknown
Apparent Right ascension
Unknown
Apparent Declination
Unknown
Sunlit
N/A
Visualization observer readout
Local Sidereal Time
10:00:32
Azimuth
Unknown
Elevation
Unknown
Doppler factor
Unknown
Orbital elements
Apogee altitude
37,400.953 km
Perigee altitude
36,302.892 km
Semi-major axis
43,230.059 km
Eccentricity
0.0127
Inclination
0.9644°
RAAN
68.9648°
Arg. of periapsis
76.9533°
True anomaly
214.09482°
Mean anomaly
214.9171°
Eccentric anomaly
214.50489°
Mean motion
0.24147 °/min
Orbital period
1,490.86 mins
BSTAR
0
Loading maneuver chart data...
Computing Atmospheric mass density...

Documentation

Showing up to 5 results
|